Location: Harwich
(41.7160°N, 69.9939°W)
Time: 05:26:18
(UTC+01:00)

A-11 Canister half - Pass Details

Date: 07 December 2023
Orbit: 1526 x 1682 km, 47.3° (Epoch: 24 February)

Event Time Altitude Azimuth Distance (km) Brightness Sun altitude
Rises 00:37:33 0° 240° (WSW) 4,914 12.7 -26.9°
Reaches altitude 10° 00:40:41 10° 240° (WSW) 3,934 12.0 -27.5°
Maximum altitude 00:50:52 87° 153° (SSE) 1,684 9.0 -29.4°
Enters shadow 00:53:45 54° 67° (ENE) 1,963 9.1 -29.9°
